date,time,DOY,Ta_1_1_1,RH_1_1_1,LWin_1_1_1,LWout_1_1_1,SWin_1_1_1,SWout_1_1_1,PPFD_1_1_1,SWC_1_1_1,Ts_1_1_1
[yyyy-mm-dd],[HH:MM],[ddd.ddd],[K],[%],[W+1m-2],[W+1m-2],[W+1m-2],[W+1m-2],[µmol+1m-2s-1],[m+3m-3],[K]
2014-05-05,00:30,125.020,275.62066666666669,65.061999999999998,-9999.0,-9999.0,-0.22066666666666668,-2.6929999999999992,-2.10000000000000082E-002,0.38000000000000017,275.42333333333329
2014-05-05,01:00,125.041,275.32733333333334,68.065333333333328,-9.5527777777777771,-9999.0,-0.26800000000000002,-2.6113333333333335,-3.46666666666666720E-002,0.38000000000000017,275.29466666666673
2014-05-05,01:30,125.062,275.28766666666667,71.394000000000005,-8.3803333333333327,-9999.0,-0.19999999999999998,-1.7476666666666667,-2.33333333333333379E-002,0.38000000000000017,275.18400000000003
2014-05-05,02:00,125.083,275.33566666666678,74.844666666666669,-7.7670000000000003,-9999.0,-0.36166666666666675,-1.2839999999999998,-3.73333333333333503E-002,0.38000000000000017,275.13366666666673
2014-05-05,02:30,125.104,275.24766666666670,78.074999999999989,-8.1893333333333320,-9999.0,-0.50800000000000012,-1.4393333333333331,-4.16666666666666921E-002,0.38000000000000017,275.11999999999995
2014-05-05,03:00,125.124,275.24166666666673,80.944666666666663,-8.0783333333333367,-9999.0,-0.51500000000000012,-1.2966666666666669,-1.86666666666666717E-002,0.38000000000000017,275.10566666666671
2014-05-05,03:30,125.145,275.14900000000000,83.123000000000033,-7.8286666666666669,-8.0657142857142841,-0.49500000000000000,-1.7136666666666664,-1.90000000000000030E-002,0.38000000000000017,275.09100000000007
2014-05-05,04:00,125.166,274.29166666666674,93.970666666666659,-6.8876666666666653,-2.5590000000000002,-1.33333333333333459E-003,-2.8836666666666670,-1.43333333333333385E-002,0.38000000000000017,275.06733333333347
2014-05-05,04:30,125.187,273.28333333333325,99.858275862068950,-5.4966666666666661,-3.0621428571428573,0.44633333333333336,-0.98533333333333339,5.20000000000000046E-002,0.38000000000000017,274.97833333333335
2014-05-05,05:00,125.208,272.97766666666666,99.992413793103410,-5.3283333333333340,-3.4043333333333332,0.54500000000000004,1.6639999999999995,3.3513333333333333,0.38000000000000017,274.79966666666672
2014-05-05,05:30,125.229,272.96199999999993,99.993928571428555,-6.3256666666666659,-0.91633333333333333,2.9286666666666665,10.147333333333330,17.641999999999999,0.38000000000000017,274.65266666666673
2014-05-05,06:00,125.249,272.99366666666663,99.993999999999971,-6.9706666666666646,-0.58800000000000019,3.6859999999999999,14.296333333333335,26.381000000000004,0.38000000000000017,274.56366666666673
2014-05-05,06:30,125.270,273.02066666666678,99.994666666666646,-7.1046666666666658,-0.59833333333333327,5.6976666666666684,27.794999999999998,47.871666666666677,0.38000000000000017,274.48599999999993
2014-05-05,07:00,125.291,273.03366666666676,99.994999999999976,-6.8773333333333344,-0.17266666666666663,10.414666666666664,66.314333333333337,103.67666666666666,0.38000000000000017,274.43266666666665
2014-05-05,07:30,125.312,273.10866666666675,99.995666666666637,-6.9609999999999985,0.48899999999999999,18.480000000000000,143.76833333333332,232.21066666666673,0.38000000000000017,274.38966666666670
2014-05-05,08:00,125.333,273.45666666666671,99.996800000000007,-6.7096666666666662,0.90399999999999980,22.545666666666662,209.52733333333336,475.12433333333337,0.38000000000000017,274.36000000000001
2014-05-05,08:30,125.354,273.74200000000008,99.994230769230754,-6.1993333333333362,0.60866666666666669,15.491666666666665,164.78366666666662,402.66866666666670,0.38000000000000017,274.35066666666665
2014-05-05,09:00,125.374,274.09566666666672,99.991538461538454,-5.4599999999999982,0.72566666666666657,17.594000000000001,192.00499999999997,465.01766666666663,0.38000000000000017,274.41433333333339
2014-05-05,09:30,125.395,274.43400000000003,99.992400000000004,-4.5029999999999992,1.4163333333333334,22.780999999999995,251.50633333333334,601.72366666666676,0.38000000000000017,274.69633333333337
2014-05-05,10:00,125.416,274.66900000000004,99.995555555555541,-3.2343333333333333,1.6319999999999995,24.104000000000003,259.80933333333331,615.69266666666670,0.38000000000000017,275.14533333333344
2014-05-05,10:30,125.437,275.23533333333336,99.859999999999999,-3.7636666666666660,1.4736666666666667,25.750666666666664,275.93599999999992,646.95699999999988,0.38000000000000017,275.53633333333340
2014-05-05,11:00,125.458,275.96200000000010,98.794333333333327,-3.9823333333333339,2.1513333333333335,35.923333333333325,372.57166666666666,848.06133333333321,0.38000000000000017,275.90433333333334
2014-05-05,11:30,125.479,276.57166666666666,95.723999999999990,-3.9936666666666665,2.8309999999999991,43.601666666666667,442.74033333333324,987.90666666666652,0.38000000000000017,276.39733333333334
2014-05-05,12:00,125.499,277.18466666666671,93.844333333333353,-4.6966666666666672,2.2063333333333333,40.509666666666668,399.73566666666665,892.34433333333322,0.38000000000000017,276.90066666666667
2014-05-05,12:30,125.520,278.25699999999995,88.271666666666675,-4.6363333333333339,2.6213333333333333,48.672333333333334,472.84333333333336,1035.5216666666668,0.38000000000000017,277.30599999999998
2014-05-05,13:00,125.541,279.00699999999995,83.165333333333336,-6.1693333333333324,0.80533333333333346,35.480333333333327,344.96733333333333,760.71033333333332,0.38000000000000017,277.72666666666674
2014-05-05,13:30,125.562,279.51433333333335,79.992666666666693,-7.3046666666666660,0.79200000000000004,35.748333333333335,345.83266666666657,739.63099999999997,0.38000000000000017,277.98033333333348
2014-05-05,14:00,125.583,279.65033333333338,77.285333333333327,-9.3657142857142883,0.21766666666666665,32.726000000000006,316.30300000000005,654.18800000000010,0.38000000000000017,278.20300000000009
2014-05-05,14:30,125.604,280.49366666666663,71.951333333333324,-8.9473684210526336,1.3363333333333334,47.504666666666658,449.15433333333328,930.70733333333351,0.38000000000000017,278.35800000000000
2014-05-05,15:00,125.624,281.16833333333335,63.903666666666666,-8.6722727272727269,1.1106666666666667,47.977666666666657,457.26266666666663,950.34866666666665,0.38000000000000017,278.75133333333338
2014-05-05,15:30,125.645,281.11933333333332,63.092999999999996,-8.8246428571428570,-0.60399999999999998,32.473333333333329,309.39399999999995,644.34533333333331,0.38000000000000017,279.08666666666664
2014-05-05,16:00,125.666,281.49333333333345,61.292999999999999,-8.9090000000000007,-2.4100000000000001,40.246666666666670,366.75966666666665,755.49799999999982,0.38000000000000017,279.18033333333341
2014-05-05,16:30,125.687,281.32100000000003,60.534666666666666,-9999.0,-9999.0,17.625333333333334,170.90366666666665,369.40300000000002,0.38000000000000017,279.25866666666673
2014-05-05,17:00,125.708,281.56700000000006,61.889666666666677,-8.7223076923076928,-9999.0,40.384666666666675,337.80933333333331,676.81866666666667,0.38000000000000017,279.06600000000009
2014-05-05,17:30,125.729,281.28799999999995,62.910333333333341,-9.4479999999999986,-9999.0,16.344666666666669,150.65099999999998,309.42266666666654,0.38000000000000017,278.96733333333327
2014-05-05,18:00,125.749,281.24933333333331,63.487000000000002,-9.4850000000000012,-9999.0,10.097000000000001,92.761999999999986,189.35699999999997,0.38000000000000017,278.83033333333344
2014-05-05,18:30,125.770,280.91133333333329,65.969666666666669,-9999.0,-9999.0,4.1490000000000000,41.120666666666658,86.986666666666665,0.38000000000000017,278.64233333333328
2014-05-05,19:00,125.791,280.61300000000000,67.380000000000010,-9999.0,-9999.0,1.4416666666666667,17.079333333333334,39.049999999999990,0.38000000000000017,278.40333333333336
2014-05-05,19:30,125.812,280.42100000000005,68.054000000000016,-9999.0,-9999.0,-0.25433333333333336,0.85233333333333372,5.9210000000000029,0.38000000000000017,278.14433333333329
2014-05-05,20:00,125.833,280.05366666666674,70.667333333333318,-9999.0,-9999.0,-0.82133333333333325,-2.2733333333333339,8.43333333333333435E-002,0.38000000000000017,277.88366666666667
2014-05-05,20:30,125.854,279.56400000000002,74.448666666666654,-9999.0,-9999.0,-0.74266666666666659,-2.5286666666666666,-4.26666666666666791E-002,0.38000000000000017,277.64866666666666
2014-05-05,21:00,125.874,279.25733333333329,76.277000000000001,-9999.0,-9999.0,-0.56433333333333313,-2.7349999999999999,-5.46666666666666898E-002,0.38000000000000017,277.42699999999996
2014-05-05,21:30,125.895,278.88866666666667,77.553666666666672,-9999.0,-9999.0,-0.52300000000000002,-3.0600000000000001,-4.30000000000000243E-002,0.38000000000000017,277.21500000000003
2014-05-05,22:00,125.916,278.36633333333327,79.624666666666670,-9999.0,-9999.0,-0.45433333333333342,-3.7526666666666673,-4.50000000000000261E-002,0.38000000000000017,276.99433333333332
2014-05-05,22:30,125.937,277.88600000000008,81.206333333333333,-9999.0,-9999.0,-2.56666666666666675E-002,-4.8496666666666668,-2.63333333333333405E-002,0.38000000000000017,276.74133333333333
2014-05-05,23:00,125.958,277.46999999999997,82.091666666666683,-9999.0,-9999.0,-0.23833333333333334,-2.6146666666666660,-2.86666666666666771E-002,0.37466666666666643,276.46200000000005
2014-05-05,23:30,125.979,277.18799999999999,82.401666666666671,-9.9514285714285702,-9999.0,-0.72466666666666646,-1.4626666666666663,-4.63333333333333514E-002,0.36999999999999983,276.29966666666672
2014-05-06,00:00,126.000,276.98166666666668,81.007333333333335,-9.5996551724137920,-9999.0,-0.68600000000000017,-1.5830000000000000,-4.30000000000000243E-002,0.36999999999999983,276.24566666666664
